Location: Ferintosh
(52.7647°N, 112.9692°W)
Time: 14:35:09
(UTC+00:00)

Tiros 1 despin weight - Pass Details

Date: 28 May 2024
Orbit: 577 x 621 km, 48.2° (Epoch: 19 June)

Event Time Altitude Azimuth Distance (km) Brightness Sun altitude
Rises 09:23:26 0° 269° (W) 2,814 ? -11.6°
Reaches altitude 10° 09:25:49 10° 262° (W) 1,906 ? -11.5°
Maximum altitude 09:29:53 39° 194° (SSW) 877 ? -11.2°
Drops below altitude 10° 09:33:54 10° 125° (SE) 1,887 ? -10.9°
Sets 09:36:16 0° 118° (ESE) 2,782 ? -10.7°
